Location: Godiavel Galaoual
(15.2485°N, 12.6604°W)
Time: 10:08:51
(UTC+00:00)

Hubble Space Telescope - Pass Details

Date: 22 May 2021
Orbit: 535 x 539 km, 28.5° (Epoch: 17 June)

Event Time Altitude Azimuth Distance (km) Brightness Sun altitude
Exits shadow 04:45:38 18° 322° (NW) 1,337 2.7 -21.5°
Maximum altitude 04:46:47 20° 345° (NNW) 1,251 2.8 -21.2°
Drops below altitude 10° 04:49:53 10° 34° (NE) 1,775 4.3 -20.6°
Sets 04:52:36 0° 52° (NE) 2,665 5.9 -20.0°
